Regional Weather Roundup
Issued by NWS Albany, NY

Home | Current Version | Previous Version | Graphics & Text | Print | Product List | Glossary On
Versions: 1 2 3 4 5 6 7 8 9 10 11 12 13 14 15 16 17 18 19 20 21 22 23 24 25 26 27 28 29 30 31 32 33 34 35 36 37 38 39 40 41 42 43 44 45 46 47 48 49 50
000
ASUS41 KALY 191710
RWRALY

NEW YORK STATE HOURLY WEATHER ROUNDUP
NATIONAL WEATHER SERVICE ALBANY NY
100 PM EDT SUN OCT 19 2014

NOTE: "FAIR" INDICATES FEW OR NO CLOUDS BELOW 12,000 FEET WITH NO
SIGNIFICANT WEATHER AND/OR NO OBSTRUCTIONS TO VISIBILITY.

NYZ032-033-038>043-046>054-057>066-NYZ062>081-191800-
EAST


CITY           SKY/WX    TMP DP  RH WIND       PRES   REMARKS
ALBANY         PTSUNNY   47  30  51 W20G25    29.92F
GLENS FALLS    PTSUNNY   48  29  47 N13       29.90S
POUGHKEEPSIE   MOSUNNY   54  28  36 NW17G25   29.90S
NEWBURGH       PTSUNNY   52  34  50 NW14G25   29.92R
MONTGOMERY     MOSUNNY   49  29  46 NW20G26   29.92S
WHITE PLAINS   PTSUNNY   53  32  44 NW18G28   29.86F
ISLIP          PTSUNNY   55  36  48 N14G24    29.83S
NEW YORK CITY  PTSUNNY   54  35  48 NW17G31   29.88F
CENTRAL PARK   PTSUNNY   53  31  42 NW10G23   29.92S
$$

NYZ005>009-017-018-044>046-055-056-191800-
CENTRAL


CITY           SKY/WX    TMP DP  RH WIND       PRES   REMARKS
FULTON         CLOUDY    43  30  60 NW10      30.04F
SYRACUSE       CLOUDY    44  28  53 NW15      30.03S
ROME           CLOUDY    41  30  65 NW13      30.02F
ELMIRA         CLOUDY    43  30  60 NW14      30.04F
BINGHAMTON     CLOUDY    39  28  64 NW15G24   29.99S WCI  31
MONTICELLO     CLOUDY    39  27  60 NW22G31   29.95F WCI  29
$$

NYZ026>034-041>043-191800-
NORTH


CITY           SKY/WX    TMP DP  RH WIND       PRES   REMARKS
WATERTOWN      CLOUDY    45  26  47 NW12      30.02F
FORT DRUM      NOT AVBL
MASSENA        CLOUDY    43  28  55 W7        29.97F
SARANAC LAKE   FLURRIES  35  32  88 W8        29.89F WCI  29
PLATTSBURGH    CLOUDY    46  31  55 NW8       29.91S
$$

NYZ001>004-010>016-019>021-191800-
WEST


CITY           SKY/WX    TMP DP  RH WIND       PRES   REMARKS
NIAGARA FALLS  PTSUNNY   44  29  55 W10       30.11F
BUFFALO        PTSUNNY   43  28  55 W10       30.11S
DUNKIRK        CLOUDY    44  30  57 W13G20    30.13S
JAMESTOWN      CLOUDY    41  28  60 W13G20    30.10S
WELLSVILLE     CLOUDY    39  28  64 NW16G22   30.06S WCI  30
ROCHESTER      CLOUDY    42  28  57 NW14      30.09S
PENN YAN       CLOUDY    42  27  55 NW12G18   30.06F
$$

             KEY
       WCI = WIND CHILL INDEX
       VSB = VISIBILITY
       HX  = HEAT INDEX
$$



USA.gov is the U.S. government's official web portal to all federal, state and local government web resources and services.